GLOBALSTAR M090 [+]

Last updated on July 6, 2021, 3:36 p.m. UTC

1 38044U 11080E   21186.91110307 -.00000112  00000-0 -46534-4 0  9991
2 38044  51.9898  71.3597 0000705  45.1145  38.3114 12.62266798441474
UTC
Height (km)
Latitude
Longitude
Inclination
Orbital Period
UTC large
Height (km)
Speed (km/s)
/
Latitude / Longitude
Inclination (degrees)
Orbital Period (minutes)
Azimuth
Elevation
Range (km)
Doppler Factor
iOS Compass Heading
iOS Angle